This is the latest recevied weather packets stored in our database for station/object N5GMJ. If no packets are shown the sender has not sent any weather packets the latest 1 day(s).
| Time | Temp. | Humidity | Pressure | Rain* | Wind** | Luminosity | Snow |
|---|---|---|---|---|---|---|---|
| 1777978909 | 20.56° C | 85% | 1004 hPa | 0 mm | 0.89 m/s, 260° | - | - |
| 1777978606 | 20.56° C | 85% | 1004.1 hPa | 0 mm | 0.45 m/s, 174° | - | - |
| 1777978301 | 20.56° C | 85% | 1004.1 hPa | 0 mm | 1.79 m/s, 341° | - | - |
| 1777977999 | 20.56° C | 85% | 1004.1 hPa | 0 mm | 1.79 m/s, 208° | - | - |
| 1777977696 | 21.11° C | 84% | 1004.1 hPa | 0 mm | 0.45 m/s, 154° | - | - |
| 1777977392 | 20.56° C | 84% | 1004.1 hPa | 0 mm | 0.89 m/s, 133° | - | - |
| 1777977090 | 21.11° C | 84% | 1004.1 hPa | 0 mm | 0.45 m/s, 107° | - | - |
| 1777976787 | 21.11° C | 84% | 1004 hPa | 0 mm | 0.45 m/s, 45° | - | - |
| 1777976485 | 21.11° C | 84% | 1004 hPa | 0 mm | 1.34 m/s, 154° | - | - |
| 1777976184 | 21.11° C | 84% | 1004.1 hPa | 0 mm | 0.45 m/s, 85° | - | - |
| 1777975879 | 21.11° C | 83% | 1004.3 hPa | 0 mm | 0.45 m/s, 354° | - | - |
| 1777975576 | 21.11° C | 83% | 1004.2 hPa | 0 mm | 0.89 m/s, 175° | - | - |
| 1777975273 | 21.11° C | 83% | 1004.2 hPa | 0 mm | 0.89 m/s, 179° | - | - |
| 1777974969 | 21.11° C | 83% | 1004.3 hPa | 0 mm | 2.24 m/s, 168° | - | - |
| 1777974666 | 21.11° C | 83% | 1004.3 hPa | 0 mm | 1.34 m/s, 131° | - | - |
| 1777974362 | 21.11° C | 83% | 1004.4 hPa | 0 mm | 1.79 m/s, 155° | - | - |
| 1777974058 | 21.11° C | 83% | 1004.5 hPa | 0 mm | 1.34 m/s, 190° | - | - |
| 1777973754 | 21.11° C | 82% | 1004.4 hPa | 0 mm | 0.45 m/s, 52° | - | - |
| 1777973452 | 21.11° C | 82% | 1004.3 hPa | 0 mm | 0.89 m/s, 129° | - | - |
| 1777973149 | 21.11° C | 82% | 1004.1 hPa | 0 mm | 1.79 m/s, 153° | - | - |
| 1777972848 | 21.11° C | 81% | 1004.4 hPa | 0 mm | 3.13 m/s, 162° | - | - |
| 1777972544 | 21.67° C | 81% | 1004.5 hPa | 0 mm | 0.89 m/s, 154° | - | - |
| 1777972243 | 21.67° C | 81% | 1004.4 hPa | 0 mm | 1.34 m/s, 182° | - | - |
| 1777971940 | 21.67° C | 80% | 1004.4 hPa | 0 mm | 1.79 m/s, 145° | - | - |
| 1777971638 | 21.67° C | 80% | 1004.6 hPa | 0 mm | 1.79 m/s, 339° | - | - |
* Rain latest hour (hover to see other rain measurements)
** Current wind speed in m/s (hover to see current wind gust speed)